Flag for China Weather past 2 weeks in Lanchow, Gansu, China

Now
30 °F

Partly sunny.


Feels Like: 24 °F
Forecast: 17 / 40 °F
Wind: 6 mph from Southeast

Location: Lanzhou / Zhongchuan

Current Time: Mar 4, 2015 at 5:00:23 PM

Latest Report: Mar 4, 2015 at 4:00 PM


Visibility: 5 mi

Pressure: 29.92 "Hg

Humidity: 40%

Dew point: 9 °F

Location of LanchowLocation

Historic Weather in Lanchow — Graph

°F

Lanchow temperature yesterday

Maximum temperature yesterday: 36 °F (at 5:00 PM)
Minimum temperature yesterday: 12 °F (at 5:00 AM)
Average temperature yesterday: 23 °F

Past Weeks' High & Low Weather Summary

 TemperatureHumidityPressure
High50 °F (Feb 17, 4:00 PM)100% (Feb 24, 8:00 PM)30.36 "Hg (Feb 24, 8:00 PM)
Low12 °F (Mar 3, 5:00 AM)17% (Feb 17, 5:00 PM)29.68 "Hg (Feb 26, 4:00 PM)
Average30 °F52%30.02 "Hg
* Reported Feb 17 4:00 PM — Mar 4 4:00 PM, Lanchow, Weather by CustomWeather, © 2015

Note: Actual official high and low records may vary slightly from our data, if they occured in-between our weather recording intervals... More about our weather records

Advertising

Lanchow weather history for previous 24 hours

 ConditionsComfort  
Time TempWeatherWind HumidityBarometerVisibility
4:00 PM
Wed, Mar 4
30 °FPartly sunny.6 mph40%29.92 "Hg5 mi
3:00 PM30 °FClear.6 mph40%29.92 "Hg5 mi
2:00 PM30 °FClear.8 mph40%29.92 "Hg5 mi
1:00 PM32 °FClear.8 mph32%29.95 "Hg5 mi
12:00 PM30 °FClear.6 mph31%29.95 "Hg5 mi
11:00 AM28 °FPassing clouds.8 mph34%29.95 "HgN/A
10:00 AM28 °FPassing clouds.10 mph34%29.98 "HgN/A
9:00 AM27 °FSunny.6 mph36%29.95 "Hg10 mi
8:00 AM25 °FPassing clouds.3 mph39%29.92 "HgN/A
7:00 AM25 °FClear.1 mph39%29.92 "Hg10 mi
6:00 AM23 °FClear.1 mph46%29.92 "Hg10 mi
5:00 AM23 °FPassing clouds.3 mph42%29.89 "HgN/A
4:00 AM23 °FClear.1 mph42%29.92 "Hg10 mi
3:00 AM23 °FPassing clouds.3 mph42%29.92 "HgN/A
2:00 AM21 °FClear.1 mph49%29.95 "Hg10 mi
1:00 AM23 °FClear.6 mph46%29.92 "Hg5 mi
12:00 AM23 °FClear.1 mph50%29.92 "Hg5 mi
11:00 PM
Tue, Mar 3
25 °FClear.3 mph46%29.92 "Hg5 mi
10:00 PM27 °FClear.6 mph39%29.92 "Hg5 mi
9:00 PM28 °FClear.6 mph40%29.92 "Hg4 mi
8:00 PM27 °FDuststorm.3 mph46%29.86 "Hg3 mi
7:00 PM32 °FClear.3 mph37%29.83 "Hg4 mi
6:00 PM34 °FClear.6 mph32%29.83 "Hg4 mi
5:00 PM36 °FClear.1 mph30%29.83 "Hg4 mi
Weather by CustomWeather, © 2015

See weather overviewHow to use our weather pages